#timestamp,LO_Frequency,Hit,StdDev 
1510423215.7,286047005.5,N
1510423235.6,286047002.9,N
1510423255.4,286047002.5,N
1510423275.2,286047000.2,N
1510423295.1,286047001.5,N
1510423296.0,286047001.5,N
1510423315.8,286047003.6,N
1510423335.6,286047005.5,N
1510423355.5,286047001.9,N
1510423375.3,286047000.5,N
1510423395.1,286046999.3,N
1510423415.9,286046998.5,N
1510423435.7,286047002.0,N
1510423455.5,286047002.0,N
1510423475.3,286047001.7,N
1510423495.2,286047005.8,N
1510423515.0,286047002.0,N
1510423515.9,286047002.0,N
1510423535.7,286047002.3,N
1510423555.6,286047000.3,N
1510423575.4,286046998.4,N
1510423595.2,286046999.0,N
1510423615.1,286046998.9,N
1510423616.0,286046998.9,N
1510423635.8,286046998.6,N
1510423655.6,286046999.2,N
1510423675.5,286046996.9,N
1510423695.3,286046998.3,N
1510423715.1,286047000.8,N
1510423735.9,286047001.9,N
1510423755.7,286047000.3,N
1510423775.5,286047000.5,N
1510423795.4,286046999.0,N
1510423815.2,286046998.7,N
1510423835.0,286046999.6,N
1510423835.9,286046999.6,N
1510423855.8,286047000.7,N
1510423875.6,286046997.2,N
1510423895.4,286046996.7,N
1510423915.2,286047000.2,N
1510423935.1,286047000.3,N
1510423936.0,286047000.3,N
1510423955.8,286047001.0,N
1510423975.6,286047004.0,N
1510423995.5,286047003.5,N
1510424015.3,286047005.2,N
1510424035.1,286047006.1,Y
1510424055.9,286047009.7,P
1510424075.7,286047010.2,N
1510424095.5,286047008.2,N
1510424115.4,286047008.5,N
1510424135.2,286047007.6,N
1510424155.0,286047005.0,N
1510424155.9,286047005.0,N
1510424175.8,286047005.3,N
1510424195.6,286047006.0,N
1510424215.4,286047005.2,N
1510424235.3,286047005.3,N
1510424255.1,286047003.3,N
1510424256.0,286047003.3,N
1510424275.8,286047002.2,N
1510424295.6,286047003.5,N
1510424315.5,286047004.3,N
1510424335.3,286047003.6,N
1510424355.1,286047007.4,N
1510424375.9,286047006.5,N
1510424395.7,286047006.4,N
1510424415.5,286047004.5,N
1510424435.4,286047008.8,Y
1510424455.2,286047003.6,P
1510424475.0,286047004.2,P
1510424475.9,286047004.2,P
1510424495.8,286047003.7,Y
1510424515.6,286046995.0,P
1510424535.4,286046992.5,N
1510424555.3,286046994.7,N
1510424575.1,286046988.6,N
1510424595.8,286046988.7,N
1510424615.7,286046990.0,N
1510424635.5,286046986.2,N
1510424655.3,286046986.0,N
1510424675.2,286046986.7,N
1510424695.9,286046984.3,N
1510424715.7,286046984.6,N
1510424735.6,286046987.7,N
1510424755.4,286046989.2,N
1510424775.2,286046990.0,N
1510424795.0,286046990.0,N
1510424795.9,286046990.0,N
1510424815.8,286046987.6,N
1510424835.6,286046988.7,N
1510424855.4,286046988.2,N
1510424875.3,286046982.2,Y
1510424895.1,286046990.1,P
1510424915.8,286046992.4,P
1510424935.7,286046991.8,P
1510424955.5,286046989.4,Y
1510424975.3,286046999.2,P
1510424995.2,286046995.8,N
1510425015.0,286046998.5,N
1510425015.9,286046998.5,N
1510425035.7,286046996.5,N
1510425055.6,286047002.3,N
1510425075.4,286047003.4,N
1510425095.2,286047004.1,N
1510425115.1,286047001.6,N
1510425116.0,286047001.6,N
1510425135.8,286047003.0,N
1510425155.6,286047008.7,N
1510425175.5,286047008.5,N
1510425195.3,286047010.7,N
1510425215.1,286047006.7,N
1510425235.9,286047005.5,N
1510425255.7,286047008.5,N
1510425275.5,286047010.2,N
1510425295.3,286047008.8,N
1510425315.2,286047009.0,N
1510425335.0,286047009.3,N
1510425335.9,286047009.3,N
1510425355.7,286047012.8,N
1510425375.6,286047010.2,N
1510425395.4,286047010.5,N
1510425415.2,286047011.5,N
1510425435.1,286047012.1,N
1510425436.0,286047012.1,N
1510425455.8,286047016.7,N
1510425475.6,286047014.3,N
1510425495.5,286047015.1,N
1510425515.3,286047014.8,N
1510425535.1,286047016.9,Y
1510425555.9,286047009.5,P
1510425575.7,286047009.6,P
1510425595.5,286047006.4,P
1510425615.4,286047006.4,Y
1510425635.2,286046999.3,P
1510425655.0,286046998.2,N
1510425655.9,286046998.2,N
1510425675.8,286047001.2,N
1510425695.6,286047001.1,N
1510425715.4,286046998.4,N
1510425735.3,286047002.1,N
1510425755.1,286047003.9,N
1510425756.0,286047003.9,N
1510425775.8,286047004.0,N
1510425795.6,286047007.6,N
1510425815.5,286047007.3,N
1510425835.3,286047006.3,N
1510425855.1,286047007.4,N
1510425875.9,286047006.6,N
1510425895.7,286047007.3,N
1510425915.5,286047008.5,N
1510425935.4,286047008.8,N
1510425955.2,286047008.5,N
1510425975.0,286047006.5,N
1510425975.9,286047006.5,N
1510425995.8,286047009.4,N
1510426015.6,286047012.0,Y
1510426035.4,286047003.0,P
1510426055.3,286047003.3,P
1510426075.1,286047006.7,P
1510426076.0,286047006.7,Y
1510426095.8,286047004.5,P
1510426115.7,286047005.3,P
1510426135.5,286047004.9,P
1510426155.3,286047004.4,Y
1510426175.2,286047000.6,P
1510426195.9,286047000.1,N
1510426215.7,286047001.5,N
1510426235.6,286047003.9,N
1510426255.4,286047001.3,N
1510426275.2,286047002.1,N
1510426295.1,286047004.3,N
1510426296.0,286047004.3,N
1510426315.8,286047004.0,N
1510426335.6,286046999.8,N
1510426355.5,286047002.4,N
1510426375.3,286047001.9,N
1510426395.1,286047002.8,N
1510426415.8,286047001.1,N
1510426435.7,286046994.9,Y
1510426455.5,286046990.3,P
1510426475.3,286046991.6,N
1510426495.2,286046990.7,N
1510426515.0,286046986.9,N
1510426515.9,286046986.9,N
1510426535.7,286046985.8,N
1510426555.6,286046982.2,Y
1510426575.4,286046997.9,P
1510426595.2,286046996.3,N
1510426615.1,286046994.2,N
1510426616.0,286046994.2,N
1510426635.8,286046996.7,N
1510426655.6,286046993.8,N
1510426675.5,286046991.7,Y
1510426695.3,286046999.3,P
1510426715.1,286046995.7,N
1510426735.9,286046995.3,N
1510426755.7,286046995.6,N
1510426775.5,286046994.2,Y
1510426795.4,286046996.9,P
